�������C�����ː����j�^�v���󋵏��
Date,Time,Cs137(Bq/L),Cs134(Bq/L),�S��(Bq/L)
2016/10/22,00:00,0.71,0.070,ND
2016/10/22,00:10,0.73,0.084,ND
2016/10/22,00:20,0.70,0.075,ND
2016/10/22,00:30,0.71,0.073,ND
2016/10/22,00:40,0.72,0.072,ND
2016/10/22,00:50,0.71,0.075,ND
2016/10/22,01:00,0.72,0.070,ND
2016/10/22,01:10,0.71,0.074,ND
2016/10/22,01:20,0.70,0.084,ND
2016/10/22,01:30,0.71,0.087,ND
2016/10/22,01:40,0.72,0.084,ND
2016/10/22,01:50,0.74,0.076,ND
2016/10/22,02:00,0.73,0.074,ND
2016/10/22,02:10,0.73,0.075,ND
2016/10/22,02:20,0.75,0.064,ND
2016/10/22,02:30,0.76,0.062,ND
2016/10/22,02:40,0.77,0.059,ND
2016/10/22,02:50,0.76,0.066,ND
2016/10/22,03:00,0.75,0.067,ND
2016/10/22,03:10,0.75,0.062,ND
2016/10/22,03:20,0.74,0.070,ND
2016/10/22,03:30,0.73,0.068,ND
2016/10/22,03:40,0.71,0.073,ND
2016/10/22,03:50,0.71,0.068,ND
2016/10/22,04:00,0.71,0.068,ND
2016/10/22,04:10,0.69,0.075,ND
2016/10/22,04:20,0.71,0.067,ND
2016/10/22,04:30,0.69,0.072,ND
2016/10/22,04:40,0.69,0.067,ND
2016/10/22,04:50,0.70,0.056,ND
2016/10/22,05:00,0.71,0.051,ND
2016/10/22,05:10,0.72,0.054,ND
2016/10/22,05:20,0.72,0.059,ND
2016/10/22,05:30,0.72,0.060,ND
2016/10/22,05:40,0.72,0.061,ND
2016/10/22,05:50,0.70,0.077,ND
2016/10/22,06:00,0.69,0.077,ND
2016/10/22,06:10,0.71,0.075,ND
2016/10/22,06:20,0.69,0.078,ND
2016/10/22,06:30,0.71,0.068,ND
2016/10/22,06:40,0.71,0.077,ND
2016/10/22,06:50,0.71,0.077,ND
2016/10/22,07:00,0.70,0.081,ND
2016/10/22,07:10,0.69,0.081,ND
2016/10/22,07:20,0.70,0.076,ND
2016/10/22,07:30,0.68,0.080,ND
2016/10/22,07:40,0.68,0.074,ND
2016/10/22,07:50,0.70,0.070,ND
2016/10/22,08:00,0.71,0.065,ND
2016/10/22,08:10,0.72,0.064,ND
2016/10/22,08:20,0.72,0.065,ND
2016/10/22,08:30,0.73,0.070,ND
2016/10/22,08:40,0.73,0.078,ND
2016/10/22,08:50,0.69,0.081,ND
2016/10/22,09:00,0.68,0.086,ND
2016/10/22,09:10,0.66,0.087,ND
2016/10/22,09:20,0.67,0.078,ND
2016/10/22,09:30,0.64,0.088,ND
2016/10/22,09:40,0.65,0.081,ND
2016/10/22,09:50,0.69,0.080,ND
2016/10/22,10:00,0.70,0.080,ND
2016/10/22,10:10,0.72,0.083,ND
2016/10/22,10:20,0.71,0.10,ND
2016/10/22,10:30,0.74,0.095,ND
2016/10/22,10:40,0.73,0.093,ND
2016/10/22,10:50,0.71,0.091,ND
2016/10/22,11:00,0.71,0.090,ND
2016/10/22,11:10,0.73,0.078,ND
2016/10/22,11:20,0.73,0.076,ND
2016/10/22,11:30,0.73,0.067,ND
2016/10/22,11:40,0.73,0.074,ND
2016/10/22,11:50,0.74,0.071,ND
2016/10/22,12:00,0.72,0.073,ND
2016/10/22,12:10,0.72,0.079,ND
2016/10/22,12:20,0.71,0.082,ND
2016/10/22,12:30,0.71,0.090,ND
2016/10/22,12:40,0.69,0.094,ND
2016/10/22,12:50,0.70,0.10,ND
2016/10/22,13:00,0.70,0.098,ND
2016/10/22,13:10,0.72,0.088,ND
2016/10/22,13:20,0.72,0.089,ND
2016/10/22,13:30,0.72,0.092,ND
2016/10/22,13:40,0.73,0.089,ND
2016/10/22,13:50,0.75,0.092,ND
2016/10/22,14:00,0.77,0.082,ND
2016/10/22,14:10,0.81,0.10,11
2016/10/22,14:20,0.78,0.091,8.8
2016/10/22,14:30,0.80,0.084,9.2
2016/10/22,14:40,0.80,0.084,11
2016/10/22,14:50,0.79,0.075,10
2016/10/22,15:00,0.80,0.085,ND
2016/10/22,15:10,0.80,0.091,ND
2016/10/22,15:20,0.80,0.086,ND
2016/10/22,15:30,0.82,0.089,ND
2016/10/22,15:40,0.82,0.085,ND
2016/10/22,15:50,0.82,0.080,ND
2016/10/22,16:00,0.80,0.074,ND
2016/10/22,16:10,0.78,0.061,ND
2016/10/22,16:20,0.76,0.059,ND
2016/10/22,16:30,0.73,0.061,ND
2016/10/22,16:40,0.73,0.058,ND
2016/10/22,16:50,0.72,0.068,ND
2016/10/22,17:00,0.71,0.064,ND
2016/10/22,17:10,0.71,0.068,ND
2016/10/22,17:20,0.70,0.074,ND
2016/10/22,17:30,0.71,0.072,ND
2016/10/22,17:40,0.71,0.070,ND
2016/10/22,17:50,0.68,0.082,ND
2016/10/22,18:00,0.65,0.097,ND
2016/10/22,18:10,0.65,0.098,ND
2016/10/22,18:20,0.63,0.10,ND
2016/10/22,18:30,0.58,0.096,ND
2016/10/22,18:40,0.57,0.099,ND
2016/10/22,18:50,0.58,0.097,ND
2016/10/22,19:00,0.64,0.078,ND
2016/10/22,19:10,0.63,0.071,ND
2016/10/22,19:20,0.70,0.076,ND
2016/10/22,19:30,0.72,0.086,ND
2016/10/22,19:40,0.73,0.079,ND
2016/10/22,19:50,0.74,0.081,ND
2016/10/22,20:00,0.72,0.092,ND
2016/10/22,20:10,0.68,0.091,ND
2016/10/22,20:20,0.70,0.10,ND
2016/10/22,20:30,0.69,0.098,ND
2016/10/22,20:40,0.71,0.095,ND
2016/10/22,20:50,0.76,0.11,ND
2016/10/22,21:00,0.78,0.11,ND
2016/10/22,21:10,0.81,0.12,ND
2016/10/22,21:20,0.82,0.10,ND
2016/10/22,21:30,0.84,0.12,ND
2016/10/22,21:40,0.83,0.11,ND
2016/10/22,21:50,0.84,0.099,ND
2016/10/22,22:00,0.87,0.094,ND
2016/10/22,22:10,0.89,0.088,ND
2016/10/22,22:20,0.90,0.086,ND
2016/10/22,22:30,0.92,0.090,ND
2016/10/22,22:40,0.93,0.089,ND
2016/10/22,22:50,0.99,0.11,ND
2016/10/22,23:00,1.0,0.11,ND
2016/10/22,23:10,1.0,0.12,ND
2016/10/22,23:20,1.0,0.11,ND
2016/10/22,23:30,1.0,0.11,ND
2016/10/22,23:40,1.0,0.12,ND
2016/10/22,23:50,1.1,0.12,ND
